TimeEST,TemperatureF,Dew PointF,Humidity,Sea Level PressureIn,VisibilityMPH,Wind Direction,Wind SpeedMPH,Gust SpeedMPH,PrecipitationIn,Events,Conditions,WindDirDegrees,DateUTC
12:14 AM,42.3,34.0,72,30.16,10.0,Calm,Calm,-,N/A,,Clear,0,2012-11-20 05:14:00
12:35 AM,40.8,33.1,74,30.15,10.0,Calm,Calm,-,N/A,,Clear,0,2012-11-20 05:35:00
12:54 AM,38.1,32.7,81,30.15,10.0,Calm,Calm,-,N/A,,Clear,0,2012-11-20 05:54:00
1:14 AM,41.0,33.3,74,30.14,10.0,Calm,Calm,-,N/A,,Clear,0,2012-11-20 06:14:00
1:34 AM,41.0,33.4,74,30.14,10.0,Calm,Calm,-,N/A,,Clear,0,2012-11-20 06:34:00
1:54 AM,35.2,32.5,90,30.14,10.0,Calm,Calm,-,N/A,,Clear,0,2012-11-20 06:54:00
2:14 AM,32.7,31.3,94,30.13,10.0,Calm,Calm,-,N/A,,Clear,0,2012-11-20 07:14:00
2:34 AM,35.4,32.5,89,30.13,10.0,Calm,Calm,-,N/A,,Clear,0,2012-11-20 07:34:00
2:54 AM,32.7,31.5,95,30.13,10.0,Calm,Calm,-,N/A,,Clear,0,2012-11-20 07:54:00
3:14 AM,32.0,31.3,97,30.13,10.0,Calm,Calm,-,N/A,,Clear,0,2012-11-20 08:14:00
3:34 AM,31.8,30.9,96,30.13,10.0,Calm,Calm,-,N/A,,Clear,0,2012-11-20 08:34:00
3:54 AM,32.4,31.8,98,30.13,10.0,Calm,Calm,-,N/A,,Clear,0,2012-11-20 08:54:00
4:14 AM,32.4,32.0,99,30.12,10.0,Calm,Calm,-,N/A,,Clear,0,2012-11-20 09:14:00
4:34 AM,32.0,31.1,96,30.12,10.0,Calm,Calm,-,N/A,,Clear,0,2012-11-20 09:34:00
4:54 AM,32.0,31.5,98,30.12,10.0,Calm,Calm,-,N/A,,Clear,0,2012-11-20 09:54:00
5:14 AM,30.9,30.6,99,30.12,7.0,Calm,Calm,-,N/A,,Clear,0,2012-11-20 10:14:00
5:34 AM,30.2,30.0,99,30.12,5.0,Calm,Calm,-,N/A,,Clear,0,2012-11-20 10:34:00
5:54 AM,30.0,30.0,100,30.12,5.0,Calm,Calm,-,N/A,,Scattered Clouds,0,2012-11-20 10:54:00
6:15 AM,30.2,30.2,100,30.12,7.0,Calm,Calm,-,N/A,,Scattered Clouds,0,2012-11-20 11:15:00
6:34 AM,30.6,30.2,99,30.11,10.0,Calm,Calm,-,N/A,,Scattered Clouds,0,2012-11-20 11:34:00
6:54 AM,30.7,30.2,98,30.11,10.0,Calm,Calm,-,N/A,,Scattered Clouds,0,2012-11-20 11:54:00
7:15 AM,31.6,31.3,99,30.12,10.0,Calm,Calm,-,N/A,,Mostly Cloudy,0,2012-11-20 12:15:00
7:34 AM,32.4,32.0,99,30.12,10.0,Calm,Calm,-,N/A,,Overcast,0,2012-11-20 12:34:00
7:54 AM,32.4,32.0,99,30.12,10.0,Calm,Calm,-,N/A,,Overcast,0,2012-11-20 12:54:00
8:15 AM,33.1,32.4,97,30.12,10.0,Calm,Calm,-,N/A,,Overcast,0,2012-11-20 13:15:00
8:28 AM,34.0,33.3,97,30.12,10.0,Calm,Calm,-,N/A,,Overcast,0,2012-11-20 13:28:00
8:54 AM,35.6,34.3,95,30.13,10.0,Calm,Calm,-,N/A,,Overcast,0,2012-11-20 13:54:00
9:15 AM,36.7,34.9,93,30.12,10.0,Calm,Calm,-,N/A,,Overcast,0,2012-11-20 14:15:00
9:34 AM,37.4,35.4,93,30.12,10.0,Calm,Calm,-,N/A,,Overcast,0,2012-11-20 14:34:00
9:54 AM,39.0,36.0,89,30.12,10.0,Calm,Calm,-,N/A,,Overcast,0,2012-11-20 14:54:00
10:14 AM,41.9,36.1,80,30.12,10.0,Calm,Calm,-,N/A,,Overcast,0,2012-11-20 15:14:00
10:34 AM,42.1,35.4,77,30.13,10.0,West,4.6,-,N/A,,Overcast,270,2012-11-20 15:34:00
10:55 AM,42.6,35.6,76,30.13,10.0,West,3.5,-,N/A,,Overcast,260,2012-11-20 15:55:00
11:14 AM,43.3,35.6,74,30.13,10.0,Calm,Calm,-,N/A,,Overcast,0,2012-11-20 16:14:00
11:34 AM,43.3,35.6,74,30.12,10.0,Calm,Calm,-,N/A,,Overcast,0,2012-11-20 16:34:00
11:55 AM,44.1,36.1,74,30.11,10.0,Calm,Calm,-,N/A,,Overcast,0,2012-11-20 16:55:00
12:14 PM,45.3,36.1,70,30.11,10.0,Calm,Calm,-,N/A,,Overcast,0,2012-11-20 17:14:00
12:34 PM,46.4,36.1,67,30.09,10.0,Calm,Calm,-,N/A,,Overcast,0,2012-11-20 17:34:00
12:55 PM,48.2,36.7,64,30.09,10.0,Calm,Calm,-,N/A,,Overcast,0,2012-11-20 17:55:00
1:14 PM,49.1,37.6,64,30.08,10.0,Calm,Calm,-,N/A,,Overcast,0,2012-11-20 18:14:00
1:35 PM,50.5,38.1,62,30.08,10.0,Calm,Calm,-,N/A,,Overcast,0,2012-11-20 18:35:00
2:14 PM,51.3,37.6,60,30.07,10.0,Calm,Calm,-,N/A,,Overcast,0,2012-11-20 19:14:00
2:35 PM,51.8,37.8,59,30.08,10.0,Calm,Calm,-,N/A,,Overcast,0,2012-11-20 19:35:00
2:54 PM,51.8,37.8,59,30.08,10.0,Calm,Calm,-,N/A,,Overcast,0,2012-11-20 19:54:00
3:14 PM,51.8,38.1,60,30.08,10.0,Calm,Calm,-,N/A,,Overcast,0,2012-11-20 20:14:00
3:35 PM,51.8,38.1,60,30.09,10.0,Calm,Calm,-,N/A,,Overcast,0,2012-11-20 20:35:00
3:54 PM,50.9,39.7,66,30.09,10.0,Calm,Calm,-,N/A,,Overcast,0,2012-11-20 20:54:00
4:14 PM,49.6,39.7,69,30.10,10.0,Calm,Calm,-,N/A,,Overcast,0,2012-11-20 21:14:00
4:35 PM,49.3,39.6,69,30.11,10.0,Calm,Calm,-,N/A,,Overcast,0,2012-11-20 21:35:00
4:54 PM,49.1,39.4,69,30.11,10.0,Calm,Calm,-,N/A,,Overcast,0,2012-11-20 21:54:00
5:15 PM,48.6,39.6,71,30.11,10.0,Calm,Calm,-,N/A,,Overcast,0,2012-11-20 22:15:00
5:35 PM,47.5,39.4,73,30.11,10.0,East,3.5,-,N/A,,Overcast,90,2012-11-20 22:35:00
5:43 PM,47.5,39.4,73,30.11,10.0,East,3.5,-,N/A,,Overcast,90,2012-11-20 22:43:00
6:14 PM,47.7,39.7,74,30.12,10.0,Calm,Calm,-,N/A,,Overcast,0,2012-11-20 23:14:00
6:35 PM,47.3,39.7,75,30.12,10.0,Calm,Calm,-,N/A,,Overcast,0,2012-11-20 23:35:00
6:54 PM,46.6,39.6,77,30.13,10.0,ENE,3.5,-,N/A,,Overcast,70,2012-11-20 23:54:00
7:15 PM,46.6,39.4,76,30.14,10.0,Calm,Calm,-,N/A,,Overcast,0,2012-11-21 00:15:00
7:34 PM,46.4,39.7,78,30.14,10.0,Calm,Calm,-,N/A,,Overcast,0,2012-11-21 00:34:00
7:55 PM,46.2,39.7,78,30.13,10.0,Calm,Calm,-,N/A,,Overcast,0,2012-11-21 00:55:00
8:14 PM,45.9,39.6,79,30.13,10.0,Calm,Calm,-,N/A,,Overcast,0,2012-11-21 01:14:00
8:34 PM,45.5,40.1,81,30.14,10.0,Calm,Calm,-,N/A,,Overcast,0,2012-11-21 01:34:00
8:55 PM,45.1,40.1,82,30.14,10.0,Calm,Calm,-,N/A,,Overcast,0,2012-11-21 01:55:00
9:14 PM,45.7,39.4,79,30.14,10.0,Calm,Calm,-,N/A,,Overcast,0,2012-11-21 02:14:00
9:35 PM,45.5,40.1,81,30.14,10.0,Calm,Calm,-,N/A,,Overcast,0,2012-11-21 02:35:00
9:54 PM,44.8,39.9,83,30.15,10.0,Calm,Calm,-,N/A,,Overcast,0,2012-11-21 02:54:00
10:15 PM,45.3,39.4,80,30.14,10.0,Calm,Calm,-,N/A,,Overcast,0,2012-11-21 03:15:00
10:35 PM,44.8,40.1,84,30.14,10.0,Calm,Calm,-,N/A,,Overcast,0,2012-11-21 03:35:00
10:54 PM,44.6,40.1,84,30.15,10.0,Calm,Calm,-,N/A,,Overcast,0,2012-11-21 03:54:00
11:15 PM,44.6,40.1,84,30.15,10.0,Calm,Calm,-,N/A,,Overcast,0,2012-11-21 04:15:00
11:35 PM,44.6,40.3,85,30.15,10.0,Calm,Calm,-,N/A,,Overcast,0,2012-11-21 04:35:00
11:54 PM,44.6,40.3,85,30.15,10.0,Calm,Calm,-,N/A,,Overcast,0,2012-11-21 04:54:00